Kezdőlap
METAR-TAF:

METAR-TAF

Repülőterek :

Grinnell, Iowa, Amerikai Egyesült Államok

földrajzi szélesség: 41-42-35N, földrajzi hosszúság: 092-44-09W, magasság: 307 m

Jelenlegi meteorológiai megfigyelések

A jelentés 8 perccel ezelõtt készült, 10:15 UTC
Kelet-északkeleti szél 3 kt
Hőmérséklet 14°C
Páratartalom 51%
Légköri nyomás 1016 hPa
Látótávolság: 16.1 km
Derült ég

METAR: KGGI 171015Z AUTO 06003KT 10SM CLR 14/04 A3000 RMK AO2 T01410042

Idő: 05:23 (10:23 UTC)


TAF: hiányzik

Meteorológiai megfigyelések és előrejelzések több, mint 4000 repülőtéren (METAR és TAF jelentéseket).

A térképen piros és sárga pontok jelzik az elérhető meteorológiai állomásokat.

Mozgassa az egeret a pont fölött, hogy megjelenjen az állomás neve.

Azután kattintson az időjárási megfigyelések és előrejelzések megtekintéséhez.

A térkép megváltoztatása: kattintson a fekete keresztel jelölt zöld gombra ráközelítéshez, a vonallal jelölt zöld gombra távolításhoz, vagy a zöld nyilakra a szomszédos térképek eléréséhez.


METAR-TAF: